AAL3018 KDCA-KMIA

Flight info

Callsign AAL3018
Flight time 1h 56m
Altitude 36000
Route AMEEE1 SCOOB EARZZ SKARP Y313 HOAGG BNFSH3
Aircraft A319/M-SDE3FGHIRWY/LB1

Departure

Time 2026-05-05 16:57
Airport Ronald Reagan Washington National Airport (KDCA)

Arrival

Time 2026-05-05 18:53
Airport Miami International Airport (KMIA)
Time Latitude Longitude Altitude Speed Heading
2026-05-05 16:33 38.85482 -77.04106 24 ft 0 kts 217°
2026-05-05 16:51 38.85499 -77.04089 25 ft 4 kts 217°
2026-05-05 16:51 38.85517 -77.04071 24 ft 3 kts 216°
2026-05-05 16:51 38.85535 -77.04061 26 ft 4 kts 144°
2026-05-05 16:51 38.85539 -77.04081 26 ft 4 kts 72°
2026-05-05 16:52 38.85536 -77.04096 28 ft 0 kts 72°
2026-05-05 16:53 38.85537 -77.04093 28 ft 1 kts 72°
2026-05-05 16:53 38.85541 -77.04075 27 ft 3 kts 72°
2026-05-05 16:54 38.85554 -77.04045 25 ft 5 kts 48°
2026-05-05 16:54 38.85588 -77.04038 24 ft 6 kts 355°
2026-05-05 16:54 38.85633 -77.04043 24 ft 7 kts 354°
2026-05-05 16:54 38.85688 -77.04048 25 ft 9 kts 356°
2026-05-05 16:55 38.85750 -77.04055 27 ft 9 kts 355°
2026-05-05 16:55 38.85817 -77.04062 30 ft 10 kts 354°
2026-05-05 16:55 38.85897 -77.04061 25 ft 13 kts 14°
2026-05-05 16:55 38.85960 -77.03979 24 ft 14 kts 34°
2026-05-05 16:56 38.86055 -77.03937 24 ft 15 kts 20°
2026-05-05 16:56 38.86038 -77.03863 24 ft 14 kts 179°
2026-05-05 16:56 38.85868 -77.03848 28 ft 54 kts 175°
2026-05-05 16:56 38.85255 -77.03788 23 ft 120 kts 176°
2026-05-05 16:57 38.84304 -77.03709 367 ft 140 kts 177°
2026-05-05 16:57 38.83327 -77.03560 1036 ft 143 kts 174°
2026-05-05 16:57 38.82340 -77.03362 1698 ft 144 kts 174°
2026-05-05 16:57 38.81294 -77.03140 2116 ft 163 kts 176°
2026-05-05 16:58 38.80105 -77.02887 2452 ft 186 kts 175°
2026-05-05 16:58 38.78748 -77.02598 2795 ft 209 kts 175°
2026-05-05 16:58 38.77244 -77.02280 3180 ft 230 kts 174°
2026-05-05 16:58 38.75620 -77.01902 3867 ft 243 kts 168°
2026-05-05 16:59 38.74170 -77.00976 4568 ft 262 kts 150°
2026-05-05 16:59 38.72626 -76.99649 5364 ft 271 kts 149°
2026-05-05 16:59 38.71073 -76.98252 6367 ft 274 kts 150°
2026-05-05 16:59 38.69517 -76.96838 7321 ft 276 kts 151°
2026-05-05 17:00 38.67938 -76.95409 8240 ft 279 kts 152°
2026-05-05 17:00 38.66335 -76.93972 9169 ft 283 kts 153°
2026-05-05 17:00 38.64706 -76.92524 10067 ft 287 kts 153°
2026-05-05 17:00 38.63007 -76.91031 10510 ft 308 kts 153°
2026-05-05 17:01 38.61180 -76.89441 10789 ft 332 kts 153°
2026-05-05 17:01 38.59209 -76.87722 11141 ft 351 kts 152°
2026-05-05 17:01 38.57240 -76.85986 11777 ft 359 kts 151°
2026-05-05 17:01 38.55160 -76.84141 12506 ft 364 kts 151°
2026-05-05 17:02 38.53092 -76.82297 13235 ft 370 kts 150°
2026-05-05 17:02 38.50977 -76.80396 13944 ft 374 kts 150°
2026-05-05 17:02 38.48832 -76.78466 14583 ft 380 kts 150°
2026-05-05 17:02 38.46655 -76.76511 15201 ft 385 kts 150°
2026-05-05 17:03 38.44446 -76.74536 15813 ft 391 kts 150°
2026-05-05 17:03 38.42122 -76.72725 16409 ft 392 kts 159°
2026-05-05 17:03 38.39591 -76.71444 17016 ft 391 kts 168°
2026-05-05 17:03 38.36928 -76.70742 17610 ft 391 kts 178°
2026-05-05 17:04 38.34211 -76.70318 18198 ft 396 kts 178°
2026-05-05 17:04 38.31453 -76.69885 18725 ft 402 kts 178°
2026-05-05 17:04 38.28663 -76.69439 19282 ft 406 kts 177°
2026-05-05 17:04 38.25846 -76.68981 19842 ft 410 kts 177°
2026-05-05 17:05 38.23004 -76.68514 20377 ft 413 kts 177°
2026-05-05 17:05 38.20142 -76.68047 20907 ft 417 kts 177°
2026-05-05 17:05 38.17257 -76.67580 21428 ft 420 kts 176°
2026-05-05 17:05 38.14346 -76.67110 21937 ft 423 kts 176°
2026-05-05 17:06 38.11410 -76.66642 22411 ft 427 kts 176°
2026-05-05 17:06 38.08455 -76.66218 22903 ft 429 kts 178°
2026-05-05 17:06 38.05469 -76.65929 23384 ft 431 kts 180°
2026-05-05 17:06 38.02464 -76.65741 23804 ft 434 kts 181°
2026-05-05 17:07 37.99437 -76.65599 24180 ft 437 kts 181°
2026-05-05 17:07 37.96382 -76.65460 24550 ft 441 kts 181°
2026-05-05 17:07 37.93304 -76.65302 24918 ft 445 kts 180°
2026-05-05 17:07 37.90201 -76.65118 25277 ft 448 kts 180°
2026-05-05 17:08 37.87072 -76.64911 25638 ft 452 kts 180°
2026-05-05 17:08 37.83923 -76.64692 26002 ft 455 kts 180°
2026-05-05 17:08 37.80754 -76.64470 26356 ft 458 kts 180°
2026-05-05 17:08 37.78641 -76.64324 26584 ft 460 kts 180°
2026-05-05 17:09 37.75436 -76.64106 26919 ft 463 kts 180°
2026-05-05 17:09 37.72208 -76.63890 27250 ft 466 kts 180°
2026-05-05 17:09 37.68951 -76.63675 27579 ft 470 kts 180°
2026-05-05 17:09 37.64609 -76.63385 28001 ft 473 kts 180°
2026-05-05 17:10 37.61311 -76.63165 28312 ft 476 kts 180°
2026-05-05 17:10 37.57996 -76.63200 28609 ft 476 kts 188°
2026-05-05 17:10 37.55772 -76.63493 28811 ft 477 kts 189°
2026-05-05 17:10 37.52458 -76.63952 29135 ft 479 kts 189°
2026-05-05 17:11 37.49145 -76.64407 29559 ft 479 kts 189°
2026-05-05 17:11 37.45872 -76.64856 30004 ft 479 kts 189°
2026-05-05 17:11 37.42561 -76.65307 30379 ft 479 kts 189°
2026-05-05 17:11 37.39251 -76.65757 30808 ft 477 kts 189°
2026-05-05 17:12 37.35959 -76.66204 31228 ft 476 kts 189°
2026-05-05 17:12 37.32667 -76.66655 31636 ft 475 kts 190°
2026-05-05 17:12 37.29387 -76.67108 32035 ft 474 kts 190°
2026-05-05 17:12 37.26106 -76.67562 32431 ft 473 kts 190°
2026-05-05 17:13 37.22830 -76.68011 32824 ft 473 kts 190°
2026-05-05 17:13 37.19556 -76.68454 33213 ft 473 kts 190°
2026-05-05 17:13 37.16291 -76.68892 33645 ft 471 kts 190°
2026-05-05 17:13 37.13032 -76.69330 34061 ft 470 kts 190°
2026-05-05 17:14 37.09781 -76.69766 34416 ft 470 kts 190°
2026-05-05 17:14 37.06534 -76.70200 34776 ft 469 kts 190°
2026-05-05 17:14 37.03295 -76.70637 35134 ft 468 kts 190°
2026-05-05 17:14 37.00062 -76.71074 35487 ft 467 kts 190°
2026-05-05 17:15 36.96838 -76.71511 35830 ft 466 kts 190°
2026-05-05 17:15 36.93659 -76.71942 36019 ft 466 kts 190°
2026-05-05 17:15 36.87190 -76.72821 36086 ft 468 kts 190°
2026-05-05 17:16 36.80711 -76.73693 36091 ft 469 kts 190°
2026-05-05 17:16 36.74223 -76.74563 36096 ft 469 kts 190°
2026-05-05 17:17 36.67739 -76.75425 36098 ft 469 kts 190°
2026-05-05 17:17 36.61258 -76.76294 36095 ft 468 kts 190°
2026-05-05 17:18 36.54776 -76.77169 36079 ft 469 kts 190°
2026-05-05 17:18 36.48291 -76.78038 36071 ft 469 kts 190°
2026-05-05 17:19 36.41804 -76.78890 36077 ft 469 kts 190°
2026-05-05 17:19 36.35317 -76.79752 36084 ft 468 kts 191°
2026-05-05 17:20 36.28839 -76.80613 36095 ft 468 kts 191°
2026-05-05 17:20 36.22349 -76.81471 36094 ft 468 kts 191°
2026-05-05 17:21 36.15870 -76.82332 36105 ft 468 kts 191°
2026-05-05 17:22 36.06197 -76.83610 36111 ft 468 kts 191°
2026-05-05 17:22 35.99712 -76.84466 36098 ft 468 kts 191°
2026-05-05 17:23 35.93235 -76.85320 36108 ft 468 kts 192°
2026-05-05 17:23 35.87000 -76.87220 36092 ft 460 kts 203°
2026-05-05 17:24 35.80895 -76.89647 36091 ft 462 kts 203°
2026-05-05 17:24 35.74759 -76.92074 36093 ft 464 kts 203°
2026-05-05 17:25 35.68607 -76.94507 36104 ft 465 kts 203°
2026-05-05 17:25 35.62436 -76.96928 36115 ft 466 kts 203°
2026-05-05 17:26 35.56300 -76.99323 36109 ft 466 kts 203°
2026-05-05 17:26 35.50089 -77.01757 36125 ft 473 kts 204°
2026-05-05 17:27 35.43805 -77.04225 36112 ft 475 kts 204°
2026-05-05 17:27 35.37508 -77.06696 36112 ft 475 kts 203°
2026-05-05 17:28 35.31200 -77.09156 36116 ft 476 kts 203°
2026-05-05 17:28 35.24889 -77.11614 36120 ft 476 kts 203°
2026-05-05 17:29 35.18579 -77.14071 36126 ft 476 kts 203°
2026-05-05 17:29 35.12253 -77.16537 36135 ft 476 kts 203°
2026-05-05 17:30 35.05935 -77.18985 36128 ft 476 kts 203°
2026-05-05 17:30 34.99622 -77.21434 36135 ft 477 kts 203°
2026-05-05 17:31 34.93298 -77.23885 36120 ft 477 kts 204°
2026-05-05 17:31 34.86950 -77.26331 36120 ft 479 kts 204°
2026-05-05 17:32 34.80574 -77.28783 36106 ft 481 kts 204°
2026-05-05 17:32 34.74182 -77.31242 36115 ft 482 kts 204°
2026-05-05 17:33 34.67816 -77.33687 36121 ft 483 kts 204°
2026-05-05 17:33 34.61398 -77.36149 36128 ft 484 kts 204°
2026-05-05 17:34 34.54973 -77.38615 36116 ft 485 kts 204°
2026-05-05 17:34 34.48511 -77.41002 36125 ft 489 kts 199°
2026-05-05 17:35 34.41748 -77.42393 36133 ft 494 kts 195°
2026-05-05 17:35 34.34966 -77.43716 36137 ft 494 kts 195°
2026-05-05 17:36 34.28174 -77.45049 36127 ft 495 kts 195°
2026-05-05 17:36 34.21371 -77.46374 36129 ft 496 kts 195°
2026-05-05 17:37 34.14558 -77.47696 36130 ft 496 kts 195°
2026-05-05 17:37 34.07741 -77.49021 36126 ft 496 kts 195°
2026-05-05 17:38 34.00919 -77.50345 36125 ft 497 kts 195°
2026-05-05 17:38 33.94124 -77.51657 36139 ft 498 kts 195°
2026-05-05 17:39 33.87290 -77.52982 36140 ft 498 kts 195°
2026-05-05 17:39 33.80445 -77.54311 36129 ft 498 kts 195°
2026-05-05 17:40 33.73590 -77.55632 36134 ft 499 kts 195°
2026-05-05 17:40 33.66732 -77.56950 36139 ft 499 kts 195°
2026-05-05 17:41 33.59869 -77.58270 36146 ft 499 kts 195°
2026-05-05 17:41 33.53215 -77.60323 36144 ft 494 kts 204°
2026-05-05 17:42 33.46602 -77.62653 36146 ft 496 kts 204°
2026-05-05 17:42 33.39970 -77.64967 36150 ft 496 kts 204°
2026-05-05 17:43 33.33342 -77.67273 36131 ft 496 kts 204°
2026-05-05 17:43 33.26713 -77.69589 36141 ft 496 kts 204°
2026-05-05 17:44 33.20131 -77.71884 36147 ft 496 kts 204°
2026-05-05 17:44 33.13506 -77.74197 36154 ft 496 kts 204°
2026-05-05 17:45 33.06875 -77.76490 36134 ft 496 kts 204°
2026-05-05 17:45 33.00240 -77.78777 36144 ft 496 kts 204°
2026-05-05 17:46 32.93609 -77.81068 36147 ft 496 kts 204°
2026-05-05 17:46 32.86976 -77.83353 36153 ft 496 kts 204°
2026-05-05 17:47 32.80339 -77.85649 36152 ft 496 kts 204°
2026-05-05 17:47 32.73709 -77.87940 36157 ft 496 kts 204°
2026-05-05 17:48 32.67119 -77.90198 36158 ft 496 kts 204°
2026-05-05 17:48 32.60464 -77.92417 36159 ft 497 kts 203°
2026-05-05 17:49 32.53785 -77.94553 36140 ft 497 kts 203°
2026-05-05 17:49 32.47098 -77.96688 36127 ft 497 kts 204°
2026-05-05 17:50 32.40416 -77.98842 36136 ft 498 kts 204°
2026-05-05 17:50 32.33737 -78.01012 36143 ft 498 kts 204°
2026-05-05 17:51 32.27059 -78.03179 36126 ft 498 kts 204°
2026-05-05 17:51 32.20372 -78.05330 36136 ft 498 kts 204°
2026-05-05 17:52 32.13681 -78.07476 36137 ft 498 kts 204°
2026-05-05 17:52 32.06982 -78.09617 36144 ft 498 kts 204°
2026-05-05 17:53 32.00289 -78.11761 36116 ft 498 kts 205°
2026-05-05 17:53 31.93599 -78.13908 36126 ft 498 kts 205°
2026-05-05 17:54 31.86945 -78.16042 36137 ft 499 kts 205°
2026-05-05 17:54 31.80250 -78.18187 36143 ft 499 kts 205°
2026-05-05 17:55 31.73543 -78.20320 36127 ft 499 kts 205°
2026-05-05 17:55 31.66832 -78.22440 36137 ft 499 kts 205°
2026-05-05 17:56 31.60128 -78.24569 36138 ft 499 kts 205°
2026-05-05 17:56 31.53423 -78.26700 36143 ft 499 kts 205°
2026-05-05 17:57 31.46718 -78.28828 36112 ft 499 kts 205°
2026-05-05 17:57 31.40075 -78.31000 36125 ft 498 kts 206°
2026-05-05 17:58 31.33420 -78.33256 36135 ft 498 kts 206°
2026-05-05 17:58 31.26759 -78.35510 36103 ft 498 kts 206°
2026-05-05 17:59 31.20093 -78.37732 36118 ft 498 kts 206°
2026-05-05 17:59 31.13420 -78.39952 36126 ft 498 kts 206°
2026-05-05 18:00 31.06755 -78.42180 36133 ft 498 kts 206°
2026-05-05 18:00 31.00091 -78.44401 36104 ft 498 kts 206°
2026-05-05 18:01 30.94548 -78.46238 36115 ft 498 kts 206°
2026-05-05 18:01 30.87874 -78.48450 36122 ft 498 kts 206°
2026-05-05 18:02 30.81205 -78.50661 36130 ft 498 kts 206°
2026-05-05 18:02 30.74526 -78.52868 36135 ft 498 kts 206°
2026-05-05 18:03 30.67852 -78.55067 36102 ft 498 kts 206°
2026-05-05 18:03 30.61187 -78.57268 36113 ft 498 kts 206°
2026-05-05 18:04 30.54557 -78.59445 36122 ft 498 kts 206°
2026-05-05 18:04 30.47875 -78.61635 36128 ft 498 kts 206°
2026-05-05 18:05 30.41208 -78.63830 36092 ft 498 kts 206°
2026-05-05 18:05 30.34531 -78.66014 36106 ft 498 kts 206°
2026-05-05 18:06 30.27856 -78.68197 36109 ft 499 kts 206°
2026-05-05 18:06 30.21177 -78.70379 36099 ft 499 kts 206°
2026-05-05 18:07 30.14494 -78.72561 36104 ft 499 kts 206°
2026-05-05 18:07 30.07810 -78.74742 36112 ft 499 kts 206°
2026-05-05 18:08 30.01126 -78.76923 36116 ft 499 kts 206°
2026-05-05 18:08 29.94437 -78.79094 36125 ft 499 kts 206°
2026-05-05 18:09 29.87792 -78.81245 36083 ft 499 kts 206°
2026-05-05 18:09 29.81102 -78.83414 36096 ft 500 kts 206°
2026-05-05 18:10 29.74164 -78.84868 36106 ft 514 kts 196°
2026-05-05 18:10 29.67052 -78.85810 36112 ft 514 kts 196°
2026-05-05 18:11 29.59949 -78.86766 36086 ft 514 kts 196°
2026-05-05 18:11 29.52840 -78.87730 36096 ft 514 kts 196°
2026-05-05 18:12 29.45735 -78.88691 36104 ft 514 kts 196°
2026-05-05 18:12 29.38667 -78.89643 36109 ft 514 kts 196°
2026-05-05 18:13 29.31558 -78.90600 36087 ft 514 kts 196°
2026-05-05 18:13 29.24448 -78.91547 36096 ft 515 kts 196°
2026-05-05 18:14 29.17286 -78.92500 36101 ft 515 kts 196°
2026-05-05 18:14 29.10213 -78.93445 36107 ft 515 kts 196°
2026-05-05 18:15 29.03098 -78.94399 36090 ft 515 kts 196°
2026-05-05 18:15 28.95970 -78.95347 36101 ft 516 kts 196°
2026-05-05 18:16 28.88842 -78.96294 36100 ft 516 kts 196°
2026-05-05 18:16 28.81712 -78.97238 36107 ft 515 kts 196°
2026-05-05 18:17 28.74589 -78.98176 36076 ft 515 kts 196°
2026-05-05 18:17 28.67466 -78.99121 36087 ft 515 kts 196°
2026-05-05 18:18 28.60349 -79.00071 36092 ft 515 kts 196°
2026-05-05 18:18 28.53236 -79.01015 36095 ft 515 kts 196°
2026-05-05 18:19 28.46114 -79.01943 36077 ft 515 kts 195°
2026-05-05 18:19 28.38997 -79.02870 36089 ft 515 kts 195°
2026-05-05 18:20 28.32050 -79.04321 36082 ft 498 kts 208°
2026-05-05 18:20 28.25547 -79.06767 36074 ft 496 kts 209°
2026-05-05 18:21 28.18992 -79.09212 36069 ft 496 kts 208°
2026-05-05 18:21 28.12428 -79.11648 36082 ft 496 kts 208°
2026-05-05 18:22 28.05869 -79.14084 36088 ft 496 kts 208°
2026-05-05 18:22 27.99311 -79.16518 36091 ft 496 kts 208°
2026-05-05 18:23 27.92758 -79.18952 36063 ft 496 kts 208°
2026-05-05 18:23 27.86205 -79.21387 36080 ft 495 kts 208°
2026-05-05 18:24 27.79655 -79.23812 36085 ft 495 kts 208°
2026-05-05 18:24 27.73110 -79.26228 36088 ft 495 kts 208°
2026-05-05 18:25 27.66565 -79.28647 36089 ft 495 kts 208°
2026-05-05 18:25 27.60021 -79.31062 36066 ft 495 kts 207°
2026-05-05 18:26 27.53484 -79.33467 36079 ft 494 kts 207°
2026-05-05 18:26 27.46943 -79.35869 36084 ft 494 kts 207°
2026-05-05 18:27 27.40407 -79.38274 36082 ft 494 kts 207°
2026-05-05 18:27 27.33869 -79.40673 35946 ft 495 kts 207°
2026-05-05 18:27 27.30599 -79.41872 35701 ft 494 kts 207°
2026-05-05 18:28 27.24055 -79.44270 35209 ft 493 kts 207°
2026-05-05 18:28 27.20839 -79.45445 34843 ft 493 kts 207°
2026-05-05 18:28 27.17513 -79.46662 33824 ft 500 kts 207°
2026-05-05 18:29 27.14233 -79.47866 32704 ft 502 kts 206°
2026-05-05 18:29 27.10918 -79.49078 31632 ft 500 kts 206°
2026-05-05 18:29 27.07617 -79.50280 30468 ft 499 kts 205°
2026-05-05 18:29 27.04311 -79.51474 29146 ft 499 kts 204°
2026-05-05 18:30 27.01016 -79.52662 27900 ft 497 kts 204°
2026-05-05 18:30 26.97709 -79.53868 26603 ft 502 kts 204°
2026-05-05 18:30 26.94375 -79.55092 25405 ft 503 kts 204°
2026-05-05 18:30 26.91107 -79.56283 24581 ft 485 kts 204°
2026-05-05 18:31 26.87938 -79.57428 23745 ft 473 kts 204°
2026-05-05 18:31 26.84841 -79.58542 22857 ft 464 kts 204°
2026-05-05 18:31 26.81776 -79.59645 22090 ft 459 kts 204°
2026-05-05 18:31 26.78752 -79.60736 21338 ft 455 kts 203°
2026-05-05 18:32 26.75756 -79.61817 20630 ft 450 kts 203°
2026-05-05 18:32 26.72785 -79.62890 19932 ft 447 kts 203°
2026-05-05 18:32 26.69873 -79.63936 19722 ft 431 kts 203°
2026-05-05 18:32 26.67078 -79.64934 19597 ft 412 kts 203°
2026-05-05 18:33 26.64396 -79.65891 19480 ft 396 kts 203°
2026-05-05 18:33 26.61808 -79.66817 19174 ft 387 kts 203°
2026-05-05 18:33 26.59258 -79.67724 18736 ft 382 kts 203°
2026-05-05 18:33 26.56729 -79.68618 18222 ft 380 kts 202°
2026-05-05 18:34 26.54207 -79.69502 17656 ft 378 kts 202°
2026-05-05 18:34 26.51747 -79.70363 17178 ft 373 kts 202°
2026-05-05 18:34 26.49282 -79.71223 16688 ft 369 kts 202°
2026-05-05 18:34 26.46922 -79.72267 16224 ft 360 kts 212°
2026-05-05 18:35 26.44869 -79.73784 15832 ft 349 kts 224°
2026-05-05 18:35 26.43161 -79.75671 15589 ft 344 kts 232°
2026-05-05 18:35 26.41551 -79.77640 15315 ft 342 kts 231°
2026-05-05 18:35 26.39944 -79.79590 15039 ft 340 kts 231°
2026-05-05 18:36 26.38369 -79.81554 14758 ft 337 kts 236°
2026-05-05 18:36 26.37017 -79.83673 14484 ft 334 kts 238°
2026-05-05 18:36 26.35700 -79.85771 14351 ft 324 kts 238°
2026-05-05 18:36 26.34430 -79.87794 14237 ft 314 kts 238°
2026-05-05 18:37 26.33201 -79.89758 14122 ft 304 kts 238°
2026-05-05 18:37 26.32003 -79.91677 13930 ft 299 kts 238°
2026-05-05 18:37 26.30823 -79.93565 13717 ft 295 kts 238°
2026-05-05 18:37 26.29650 -79.95437 13507 ft 294 kts 238°
2026-05-05 18:38 26.28484 -79.97301 13320 ft 293 kts 238°
2026-05-05 18:38 26.27319 -79.99159 13122 ft 292 kts 238°
2026-05-05 18:38 26.26029 -80.00871 12933 ft 295 kts 225°
2026-05-05 18:38 26.24306 -80.02181 12731 ft 300 kts 209°
2026-05-05 18:39 26.22337 -80.02895 12533 ft 304 kts 195°
2026-05-05 18:39 26.20267 -80.03360 12328 ft 303 kts 195°
2026-05-05 18:39 26.18211 -80.03822 12130 ft 301 kts 195°
2026-05-05 18:39 26.16161 -80.04286 11927 ft 300 kts 195°
2026-05-05 18:40 26.14117 -80.04749 11712 ft 299 kts 195°
2026-05-05 18:40 26.12085 -80.05212 11517 ft 298 kts 195°
2026-05-05 18:40 26.10054 -80.05678 11322 ft 297 kts 195°
2026-05-05 18:40 26.08032 -80.06144 11120 ft 297 kts 195°
2026-05-05 18:41 26.06013 -80.06613 10908 ft 296 kts 196°
2026-05-05 18:41 26.04010 -80.07112 10653 ft 294 kts 197°
2026-05-05 18:41 26.02024 -80.07629 10407 ft 293 kts 197°
2026-05-05 18:41 26.00043 -80.08154 10162 ft 291 kts 197°
2026-05-05 18:42 25.98074 -80.08676 9917 ft 290 kts 197°
2026-05-05 18:42 25.96112 -80.09192 9652 ft 289 kts 197°
2026-05-05 18:42 25.94162 -80.09718 9406 ft 287 kts 200°
2026-05-05 18:42 25.92359 -80.10617 9170 ft 283 kts 214°
2026-05-05 18:43 25.90843 -80.11973 8936 ft 278 kts 229°
2026-05-05 18:43 25.89559 -80.13569 8700 ft 277 kts 232°
2026-05-05 18:43 25.88522 -80.15347 8464 ft 273 kts 247°
2026-05-05 18:43 25.87966 -80.17350 8227 ft 271 kts 262°
2026-05-05 18:44 25.87862 -80.19444 7995 ft 272 kts 269°
2026-05-05 18:44 25.87813 -80.21539 7673 ft 271 kts 268°
2026-05-05 18:44 25.87744 -80.23633 7351 ft 271 kts 268°
2026-05-05 18:44 25.87671 -80.25722 7034 ft 271 kts 268°
2026-05-05 18:45 25.87598 -80.27807 6720 ft 270 kts 268°
2026-05-05 18:45 25.87526 -80.29862 6401 ft 270 kts 268°
2026-05-05 18:45 25.87471 -80.31940 6027 ft 269 kts 269°
2026-05-05 18:45 25.87415 -80.34009 5706 ft 268 kts 268°
2026-05-05 18:46 25.87338 -80.36071 5401 ft 266 kts 268°
2026-05-05 18:46 25.87239 -80.38117 5110 ft 265 kts 267°
2026-05-05 18:46 25.87121 -80.40156 5012 ft 265 kts 266°
2026-05-05 18:46 25.86993 -80.42197 5015 ft 265 kts 266°
2026-05-05 18:47 25.86860 -80.44232 5014 ft 265 kts 266°
2026-05-05 18:47 25.86724 -80.46260 5010 ft 260 kts 266°
2026-05-05 18:47 25.86507 -80.48234 4957 ft 258 kts 256°
2026-05-05 18:47 25.85680 -80.49980 4671 ft 252 kts 229°
2026-05-05 18:48 25.84373 -80.51172 4610 ft 237 kts 217°
2026-05-05 18:48 25.83050 -80.52182 4541 ft 226 kts 210°
2026-05-05 18:48 25.81560 -80.52495 4468 ft 217 kts 173°
2026-05-05 18:48 25.80219 -80.51808 4303 ft 217 kts 138°
2026-05-05 18:49 25.79482 -80.50359 3771 ft 222 kts 99°
2026-05-05 18:49 25.79506 -80.48668 3420 ft 216 kts 84°
2026-05-05 18:49 25.79564 -80.47574 3172 ft 212 kts 85°
2026-05-05 18:49 25.79637 -80.45969 2858 ft 206 kts 85°
2026-05-05 18:50 25.79704 -80.44400 2584 ft 202 kts 85°
2026-05-05 18:50 25.79767 -80.42856 2310 ft 199 kts 85°
2026-05-05 18:50 25.79829 -80.41333 2028 ft 195 kts 85°
2026-05-05 18:50 25.79887 -80.39875 1773 ft 183 kts 85°
2026-05-05 18:51 25.79942 -80.38513 1525 ft 169 kts 85°
2026-05-05 18:51 25.79985 -80.37295 1294 ft 149 kts 85°
2026-05-05 18:51 25.80020 -80.36195 1103 ft 137 kts 85°
2026-05-05 18:51 25.80063 -80.35170 894 ft 130 kts 84°
2026-05-05 18:52 25.80120 -80.34182 763 ft 128 kts 85°
2026-05-05 18:52 25.80164 -80.33192 576 ft 129 kts 86°
2026-05-05 18:52 25.80210 -80.32203 438 ft 127 kts 86°
2026-05-05 18:52 25.80248 -80.31240 267 ft 124 kts 85°
2026-05-05 18:53 25.80286 -80.30290 71 ft 122 kts 87°
2026-05-05 18:53 25.80321 -80.29392 16 ft 103 kts 87°
2026-05-05 18:53 25.80348 -80.28781 16 ft 57 kts 88°
2026-05-05 18:53 25.80357 -80.28445 15 ft 28 kts 91°
2026-05-05 18:54 25.80304 -80.28256 15 ft 17 kts 133°
2026-05-05 18:54 25.80274 -80.28232 14 ft 2 kts 152°
2026-05-05 18:54 25.80259 -80.28225 14 ft 0 kts 158°
2026-05-05 18:55 25.80250 -80.28222 14 ft 0 kts 161°
2026-05-05 18:55 25.80248 -80.28224 14 ft 1 kts 192°
2026-05-05 18:55 25.80249 -80.28262 14 ft 7 kts 275°
2026-05-05 18:56 25.80254 -80.28321 15 ft 8 kts 274°
2026-05-05 18:56 25.80253 -80.28391 15 ft 10 kts 267°
2026-05-05 18:56 25.80249 -80.28472 16 ft 11 kts 267°
2026-05-05 18:56 25.80234 -80.28528 18 ft 12 kts 228°
2026-05-05 18:57 25.80148 -80.28540 16 ft 14 kts 177°
2026-05-05 18:57 25.80007 -80.28530 15 ft 16 kts 176°
2026-05-05 18:57 25.79935 -80.28507 15 ft 7 kts 94°
2026-05-05 18:57 25.79933 -80.28446 16 ft 9 kts 115°
2026-05-05 18:58 25.79899 -80.28419 15 ft 10 kts 138°
2026-05-05 18:58 25.79888 -80.28311 15 ft 12 kts 88°
2026-05-05 18:58 25.79893 -80.28212 15 ft 14 kts 87°
2026-05-05 18:58 25.79889 -80.28130 16 ft 6 kts 143°
2026-05-05 18:59 25.79852 -80.28129 15 ft 5 kts 184°
2026-05-05 18:59 25.79838 -80.28130 15 ft 2 kts 184°
2026-05-05 18:59 25.79837 -80.28130 15 ft 0 kts 184°